Overview Statistics Trail Chart Weather Telemetry Raw packets
 

This is the latest recevied weather packets stored in our database for station/object VK4TW-13. If no packets are shown the sender has not sent any weather packets the latest 10 day(s).

<< 19 20 21 22 23 24 25 >>
Time Temp. Humidity Pressure Rain* Wind** Luminosity Snow
1788396271 27.22° C 100% 1022.4 hPa 0 mm - - -
1788395782 27.22° C 100% 1022.5 hPa 0 mm - - -
1788395182 26.67° C 100% 1022.6 hPa 0 mm - - -
1788394581 26.11° C 100% 1022.9 hPa 0 mm - - -
1788393980 26.11° C 100% 1023 hPa 0 mm - - -
1788393379 25.56° C 100% 1023 hPa 0 mm - - -
1788392778 25° C 100% 1023.2 hPa 0 mm - - -
1788392177 24.44° C 100% 1023.1 hPa 0 mm - - -
1788391576 23.89° C 100% 1023.1 hPa 0 mm - - -
1788391023 23.33° C 100% 1023.2 hPa 0 mm - - -
1788390975 23.33° C 100% 1023.2 hPa 0 mm - - -
1788390374 22.78° C 100% 1023.3 hPa 0 mm - - -
1788389773 22.22° C 100% 1023.3 hPa 0 mm - - -
1788389172 22.22° C 100% 1023.2 hPa 0 mm - - -
1788388571 21.67° C 100% 1023.2 hPa 0 mm - - -
1788388068 21.11° C 100% 1023.1 hPa 0 mm - - -
1788387972 21.11° C 100% 1023.1 hPa 0 mm - - -
1788387428 20.56° C 100% 1023.1 hPa 0 mm - - -
1788387371 20.56° C 100% 1023.1 hPa 0 mm - - -
1788386870 20.56° C 100% 1023.1 hPa 0 mm - - -
1788386770 20.56° C 100% 1023.1 hPa 0 mm - - -
1788386249 19.44° C 100% 1023 hPa 0 mm - - -
1788386169 19.44° C 100% 1023 hPa 0 mm - - -
1788385567 18.89° C 100% 1022.8 hPa 0 mm - - -
1788384967 17.78° C 100% 1022.7 hPa 0 mm - - -

* Rain since midnight (hover to see other rain measurements)
** Current wind speed in m/s (hover to see current wind gust speed)